Location: Alphen aan den Rijn
(52.1277°N, 4.6689°E)
Time: 03:02:01
(UTC+01:00)

N. Korean satellite - Visible Passes

Search period start: 25 February 2018 00:00
Search period end: 07 March 2018 00:00
Orbit: 459 x 514 km, 97.2° (Epoch: 24 February)

Date Brightness Start Highest point End Pass type
(mag) Time Alt. Az. Time Alt. Az. Time Alt. Az.
25 Feb 10.3 06:18:03 10° ENE 06:19:58 14° E 06:21:55 10° ESE visible
26 Feb 10.2 19:43:44 10° WSW 19:45:19 13° W 19:46:56 10° WNW visible
27 Feb 9.5 19:18:33 10° SW 19:21:20 22° W 19:24:09 10° NW visible
28 Feb 9.7 06:39:26 10° NE 06:42:25 22° E 06:45:24 10° SE visible
28 Feb 8.3 18:54:07 10° SSW 18:57:24 38° W 19:00:47 10° NNW visible
01 Mar 10.4 06:16:32 10° ENE 06:18:26 13° E 06:20:20 10° ESE visible
02 Mar 10.2 19:41:59 10° WSW 19:43:44 13° W 19:45:30 10° WNW visible
03 Mar 9.5 19:16:53 10° SSW 19:19:45 23° W 19:22:38 10° NW visible
04 Mar 9.8 06:37:52 10° NE 06:40:51 22° E 06:43:50 10° SE visible
04 Mar 8.3 18:52:27 10° S 18:55:47 40° W 18:59:14 10° NNW visible
05 Mar 10.4 06:15:01 10° ENE 06:16:51 13° E 06:18:41 10° ESE visible
06 Mar 10.1 19:40:12 10° WSW 19:42:06 14° W 19:44:03 10° NW visible
